星链-30352 (STARLINK-30352 )

导读 | 豆包AI

STARLINK-30352是美国星链计划的卫星,于2023年9月1日发射。星链项目依托低轨卫星星座构建全球互联网覆盖网络,该卫星入轨后,参与组网运行,为全球偏远、欠发达区域及海运、航空等移动场景,提供低延迟的宽带接入服务,进一步扩充了星链星座的服务覆盖范围和通信容量。

基本信息
目录编号:
57736
目录名称:
STARLINK-30352
国际标识:
2023-131E
轨道中心:
EARTH
卫星名称:
星链-30352
卫星全名:
星链-30352 (STARLINK-30352 )
卫星状态:
在轨 (已飞行972 天)
发射日期:
2023-09-01 UTC
国别 :
美国 (US)
星等 :
--
轨道信息
数据来源 国际轨道数据 AOE轨道数据
星历时间 2026-04-30T03:59:19+0800
20小时前
查看轨道信息
2026-04-30T08:00:00+0800
16小时前
查看轨道信息
半长轴 6863.68km 6863.716km
偏心率 0.0001399 0.000258
轨道倾角 43.002° 43.002°
近地点辐角 276.882° 278.891°
升交点赤经 250.811° 249.871°
平近点角 83.187° 280.890°
近地点 484.582km 483.808km
远地点 486.504km 487.35km
周期 94.318分钟 94.319分钟
每日圈数 15.267478 15.267356
详细信息
固有亮度:
5
最大亮度:
0.3
卫星平台:
Starlink v2.0 mini
覆盖范围:
全球
运营商:
太空探索技术公司
运营商所在国:
美国
制造商(研发单位):
太空探索技术公司
制造商所在国:
美国
使用方式:
暂无
卫星简介
星链(Starlink)计划是由太空探索技术公司(SpaceX)提出的一个巨型低轨卫星互联网星座项目,计划在2019年至2024年间在太空搭建由约1.2万颗卫星组成的“星链”网络,其中1584颗将部署在地球上空550千米处的近地轨道,并从2020年开始工作。该卫星仍在工作。
2D轨道图
3D轨道图
轨道高度分析图
轨道倾角分析图
轨道综合分析图
查看轨道综合分析图